Terminal Aerodrome Forecast
Issued by NWS Twin Cities, MN

Home | Current Version | Previous Version | Text Only | Print | Product List | Glossary On
Versions: 1 2 3 4 5 6 7 8 9 10 11 12 13 14 15 16 17 18 19 20
000
FTUS43 KMPX 010500 RRA
TAFEAU
TAF
KEAU 010540Z 0106/0206 14010KT P6SM BKN015 OVC040
     FM011000 13010KT 5SM BR BKN008 OVC020
     FM011600 14011KT 6SM -RA BR SCT007 OVC015
     FM012300 15009KT 4SM -SHRA BR OVC008
     FM020300 17004KT 3SM BR OVC005=

USA.gov is the U.S. government's official web portal to all federal, state and local government web resources and services.